Juneau, AK

6:24 AM AKDT on June 22, 2017 (GMT -0800)
Juneau International

Weather History for PAJN - May, 2014

Change the Weather History Date:

Sunday, May 4, 2014

  Actual Average Record
Temperature  
Mean Temperature 49 °F 46 °F  
Max Temperature 63 °F 54 °F 66 °F (1960)
Min Temperature 34 °F 37 °F 26 °F (1956)
Degree Days  
Heating Degree Days 16 20  
Month to date heating degree days 47 80  
Since 1 July heating degree days 7431 7608  
Cooling Degree Days 0 0  
Month to date cooling degree days 0 0  
Year to date cooling degree days 0 0  
Moisture  
Dew Point 29 °F    
Average Humidity 48    
Maximum Humidity 75    
Minimum Humidity 21    
Precipitation  
Precipitation 0.00 in 0.10 in 0.82 in (1992)
Month to date precipitation 0.00 0.42  
Year to date precipitation 18.25 16.62  
Sea Level Pressure  
Sea Level Pressure 29.96 in    
Wind  
Wind Speed 5 mph (WSW)    
Max Wind Speed 13 mph    
Max Gust Speed 15 mph    
Visibility 10 miles    
Events      
T = Trace of Precipitation, MM = Missing Value Source: NWS Daily Summary

Daily Weather History Graph

Daily Weather History Graph

Search for Another Location

Airport or City:

Trip Planner

Search our weather history database for the weather conditions in past years. The results will help you decide how hot, cold, wet, or windy it might be!

Date:

Astronomy

May. 04, 2014 Rise Set
Actual Time 4:56 AM AKDT 8:55 PM AKDT
Civil Twilight 4:05 AM AKDT 9:46 PM AKDT
Nautical Twilight 2:49 AM AKDT 11:04 PM AKDT
Astronomical Twilight 1:27 AM AKDT 12:22 AM AKDT
Moon 9:23 AM AKDT (5/4) 1:10 AM AKDT (5/4)
Length of Visible Light 17h 40m
Length of Day
15h 58m
Waxing Crescent, 29% of the Moon is Illuminated
May 4
Waxing Crescent
May 6
First Quarter
May 14
Full
May 21
Last Quarter
May 28
New

Hourly Weather History & Observations

Time (AKDT) Temp. Windchill Dew Point Humidity Pressure Visibility Wind Dir Wind Speed Gust Speed Precip Events Conditions
12:53 AM 39.9 °F 37.8 °F 30.0 °F 68% 30.03 in 10.0 mi Variable 3.5 mph - N/A   Clear
1:53 AM 42.1 °F - 30.0 °F 62% 30.03 in 10.0 mi Calm Calm - N/A   Clear
2:53 AM 37.0 °F 34.5 °F 28.9 °F 73% 30.02 in 10.0 mi West 3.5 mph - N/A   Clear
3:53 AM 39.0 °F 36.8 °F 28.9 °F 67% 30.02 in 10.0 mi West 3.5 mph - N/A   Partly Cloudy
4:53 AM 34.0 °F - 27.0 °F 75% 30.03 in 10.0 mi Calm Calm - N/A   Scattered Clouds
5:53 AM 36.0 °F - 28.9 °F 76% 30.02 in 10.0 mi Calm Calm - N/A   Scattered Clouds
6:53 AM 39.9 °F - 30.9 °F 70% 30.02 in 10.0 mi Calm Calm - N/A   Clear
7:53 AM 46.0 °F 44.8 °F 32.0 °F 58% 30.01 in 10.0 mi West 3.5 mph - N/A   Clear
8:53 AM 50.0 °F - 30.9 °F 48% 30.01 in 10.0 mi West 5.8 mph - N/A   Clear
9:53 AM 53.1 °F - 28.9 °F 40% 30.00 in 10.0 mi West 4.6 mph - N/A   Clear
10:53 AM 55.9 °F - 27.0 °F 33% 29.99 in 10.0 mi WSW 8.1 mph - N/A   Clear
11:53 AM 57.9 °F - 24.1 °F 27% 29.98 in 10.0 mi WSW 9.2 mph - N/A   Clear
12:53 PM 60.1 °F - 26.1 °F 27% 29.97 in 10.0 mi WSW 10.4 mph - N/A   Clear
1:53 PM 62.1 °F - 24.1 °F 23% 29.95 in 10.0 mi SW 10.4 mph - N/A   Clear
2:53 PM 62.1 °F - 23.0 °F 22% 29.94 in 10.0 mi SW 11.5 mph - N/A   Partly Cloudy
3:53 PM 63.0 °F - 24.1 °F 23% 29.92 in 10.0 mi SW 10.4 mph - N/A   Partly Cloudy
4:53 PM 63.0 °F - 25.0 °F 24% 29.90 in 10.0 mi SW 9.2 mph - N/A   Partly Cloudy
5:53 PM 63.0 °F - 26.1 °F 25% 29.89 in 10.0 mi WSW 8.1 mph - N/A   Partly Cloudy
6:53 PM 60.1 °F - 28.9 °F 31% 29.88 in 10.0 mi WSW 8.1 mph - N/A   Partly Cloudy
7:53 PM 57.9 °F - 28.0 °F 32% 29.88 in 10.0 mi West 8.1 mph - N/A   Partly Cloudy
8:53 PM 50.0 °F - 32.0 °F 50% 29.90 in 10.0 mi East 5.8 mph - N/A   Partly Cloudy
9:53 PM 48.0 °F - 34.0 °F 58% 29.90 in 10.0 mi Calm Calm - N/A   Partly Cloudy
10:53 PM 45.0 °F - 33.1 °F 63% 29.91 in 10.0 mi Calm Calm - N/A   Partly Cloudy
11:53 PM 42.1 °F - 34.0 °F 73% 29.91 in 10.0 mi Calm Calm - N/A   Partly Cloudy